Location: Unspecified
(34.4950°S, 58.5160°W)
Time: 16:06:01
(UTC+00:00)

Cosmos 1655 Rocket - Pass Details

Date: 30 June 2022
Orbit: 971 x 1005 km, 83.0° (Epoch: 11 August)

Event Time Altitude Azimuth Distance (km) Brightness Sun altitude
Rises 22:41:53 0° 18° (NNE) 3,707 7.0 -21.5°
Reaches altitude 10° 22:44:34 10° 26° (NNE) 2,769 6.2 -22.1°
Enters shadow 22:48:33 32° 58° (ENE) 1,666 4.8 -22.9°
